Gadsden, AL

11:55 AM CST on December 09, 2019 (GMT -0600)
Gadsden Municipal

Weather History for KGAD - November, 2019

Change the Weather History Date:

Tuesday, November 19, 2019

  Actual Average Record
Temperature  
Mean Temperature 50 °F -  
Max Temperature 64 °F 60 °F 83 °F (1942)
Min Temperature 37 °F 37 °F 15 °F (2014)
Degree Days  
Heating Degree Days 14    
Moisture  
Dew Point 39 °F    
Average Humidity 76    
Maximum Humidity 96    
Minimum Humidity 45    
Precipitation  
Precipitation 0.00 in - - ()
Sea Level Pressure  
Sea Level Pressure 29.95 in    
Wind  
Wind Speed 3 mph ()    
Max Wind Speed 9 mph    
Max Gust Speed -    
Visibility 9.9 miles    
Events Rain    
Averages and records for this station are not official NWS values.
T = Trace of Precipitation, MM = Missing Value Source: Averaged Metar Reports

Daily Weather History Graph

Daily Weather History Graph

Search for Another Location

Airport or City:

Astronomy

Nov. 19, 2019 Rise Set
Actual Time 6:20 AM CST 4:38 PM CST
Civil Twilight 5:53 AM CST 5:05 PM CST
Nautical Twilight 5:23 AM CST 5:35 PM CST
Astronomical Twilight 4:53 AM CST 6:05 PM CST
Moon 11:30 PM CST (11/19) 12:32 PM CST (11/19)
Length of Visible Light 11h 11m
Length of Day
10h 18m
Waning Gibbous, 51% of the Moon is Illuminated
Nov 19
Waning Gibbous
Nov 19
Last Quarter
Nov 26
New
Dec 4
First Quarter
Dec 11
Full

Hourly Weather History & Observations

Time (CST) Temp. Windchill Dew Point Humidity Pressure Visibility Wind Dir Wind Speed Gust Speed Precip Events Conditions
12:56 AM 37.9 °F 33.5 °F 36.0 °F 93% 29.90 in 10.0 mi West 5.8 mph - N/A   Clear
1:56 AM 39.9 °F - 37.0 °F 89% 29.90 in 10.0 mi Calm Calm - N/A   Mostly Cloudy
2:56 AM 39.0 °F - 37.0 °F 93% 29.90 in 10.0 mi Calm Calm - N/A   Overcast
3:56 AM 39.9 °F - 37.9 °F 93% 29.90 in 10.0 mi Calm Calm - N/A   Mostly Cloudy
4:56 AM 39.9 °F - 37.9 °F 93% 29.91 in 10.0 mi Calm Calm - 0.00 in   Overcast
5:56 AM 41.0 °F - 39.9 °F 96% 29.94 in 9.0 mi Calm Calm - 0.00 in Rain Light Rain
6:56 AM 42.1 °F 39.2 °F 39.9 °F 92% 29.93 in 9.0 mi East 4.6 mph - 0.00 in   Overcast
7:56 AM 44.1 °F 40.8 °F 41.0 °F 89% 29.95 in 10.0 mi WSW 5.8 mph - N/A   Mostly Cloudy
8:56 AM 48.0 °F - 41.0 °F 77% 29.94 in 10.0 mi SSW 5.8 mph - N/A   Clear
9:56 AM 52.0 °F - 39.9 °F 63% 29.94 in 10.0 mi SW 4.6 mph - N/A   Clear
10:56 AM 55.9 °F - 39.9 °F 55% 29.92 in 10.0 mi SW 8.1 mph - N/A   Clear
11:56 AM 59.0 °F - 39.9 °F 49% 29.89 in 10.0 mi SSW 5.8 mph - N/A   Clear
12:56 PM 61.0 °F - 39.9 °F 46% 29.88 in 10.0 mi SW 6.9 mph - N/A   Clear
2:56 PM 64.9 °F - 43.0 °F 45% 29.90 in 10.0 mi West 8.1 mph - N/A   Clear
3:56 PM 63.0 °F - 42.1 °F 46% 29.92 in 10.0 mi West 9.2 mph - N/A   Clear
4:56 PM 55.9 °F - 42.1 °F 60% 29.94 in 10.0 mi WSW 4.6 mph - N/A   Clear
5:56 PM 48.0 °F - 41.0 °F 77% 29.96 in 10.0 mi SSW 3.5 mph - N/A   Clear
7:56 PM 44.1 °F - 39.0 °F 82% 30.01 in 10.0 mi Calm Calm - N/A   Clear
8:56 PM 45.0 °F 41.8 °F 39.0 °F 80% 30.02 in 10.0 mi WNW 5.8 mph - N/A   Clear
9:56 PM 43.0 °F 41.3 °F 37.0 °F 80% 30.04 in 10.0 mi West 3.5 mph - N/A   Clear
10:56 PM 39.9 °F - 36.0 °F 86% 30.05 in 10.0 mi Calm Calm - N/A   Clear
11:56 PM 37.9 °F - 36.0 °F 93% 30.06 in 10.0 mi Calm Calm - N/A   Clear